[[[{"header":{"parameterUnit":"kt","parameterCategory":2,"dx":1,"dy":1,"la1":30.253999710083008,"la2":30.299108505249023,"lo1":-89.0895004272461,"lo2":-89.04439544677734,"nx":28,"ny":28,"refTime":"2022-10-27T21:00:00:Z","depth":0,"parameterNumber":1,"parameterNumberName":"U-component_of_WINDS"},"data":[-13.7371,-13.7404,-13.7336,-13.7343,-13.7283,-13.7274,-13.7249,-13.721,-13.7161,-13.7144,-13.7122,-13.7056,-13.6978,-13.6934,-13.6905,-13.6876,-13.6864,-13.6929,-13.6881,-13.6661,-13.6625,-13.6591,-13.6574,-13.6931,-13.6931,-13.7114,-13.7116,-13.7118,-13.722,-13.7161,-13.7146,-13.7081,-13.7067,-13.6965,-13.6907,-13.69,-13.6895,-13.6836,-13.681,-13.6788,-13.6762,-13.6659,-13.6621,-13.6634,-13.658,-13.6628,-13.662,-13.6608,-13.6373,-13.6356,-13.6673,-13.6673,-13.6673,-13.6673,-13.6673,-13.6673,-13.6925,-13.6949,-13.6868,-13.6848,-13.6798,-13.6757,-13.6766,-13.6682,-13.6665,-13.6616,-13.6536,-13.6529,-13.6454,-13.6372,-13.6327,-13.6318,-13.625,-13.6278,-13.6283,-13.6289,-13.6305,-13.6039,-13.631,-13.6308,-13.6307,-13.6306,-13.6306,0,-13.6684,-13.6623,-13.6601,-13.656,-13.6541,-13.6502,-13.6453,-13.6458,-13.6301,-13.6294,-13.6275,-13.6252,-13.6208,-13.618,-13.6129,-13.6073,-13.5955,-13.594,-13.5957,-13.5988,-13.6026,-13.5998,-13.5609,-13.5929,-13.5925,-13.5923,-13.5921,-13.5919,-13.6372,-13.641,-13.6289,-13.6284,-13.6237,-13.6232,-13.6212,-13.6071,-13.6057,-13.5975,-13.6003,-13.5976,-13.5944,-13.5927,-13.5822,-13.5788,-13.5728,-13.5857,-13.5721,-13.5755,-13.5718,-13.5713,-13.5713,-13.5882,-13.5887,-13.5891,-13.5894,0,-13.6202,-13.6083,-13.6116,-13.5991,-13.5961,-13.6007,-13.5898,-13.5917,-13.583,-13.5842,-13.5837,-13.57,-13.5683,-13.5557,-13.5513,-13.5447,-13.5518,-13.5467,-13.5542,-13.5521,-13.5618,-13.5607,-13.5966,-13.6002,-13.5642,-13.5646,-13.5649,0,-13.5883,-13.5938,-13.5754,-13.5779,-13.5836,-13.5687,-13.5747,-13.5677,-13.5606,-13.5614,-13.5464,-13.5474,-13.531,-13.5303,-13.5205,-13.5242,-13.5236,-13.5183,-13.5154,-13.519,-13.5195,-13.517,-13.5148,-13.5099,-13.5097,-13.5096,-13.5094,0,-13.562,-13.5587,-13.5629,-13.5601,-13.5469,-13.5493,-13.544,-13.5357,-13.5339,-13.5296,-13.5281,-13.5244,-13.522,-13.5194,-13.5065,-13.4977,-13.5111,-13.4962,-13.5055,-13.5058,-13.5081,-13.5079,-13.544,-13.5092,-13.5091,-13.5091,-13.509,0,-13.5337,-13.5296,-13.5378,-13.5262,-13.5258,-13.5288,-13.5235,-13.5231,-13.5155,-13.5093,-13.5058,-13.4937,-13.4964,-13.4826,-13.4857,-13.4777,-13.4764,-13.4717,-13.4721,-13.4704,-13.4549,-13.4758,-13.5124,-13.5151,-13.4706,-13.4703,-13.47,0,-13.5066,-13.5115,-13.4983,-13.5065,-13.5067,-13.489,-13.4921,-13.4857,-13.4777,-13.4767,-13.4678,-13.4669,-13.4539,-13.4516,-13.4552,-13.4456,-13.4562,-13.444,-13.4421,-13.4422,-13.4436,-13.4774,-13.4854,-13.506,-13.4657,-13.4662,-13.4665,0,-13.4836,-13.4671,-13.4694,-13.4652,-13.4541,-13.4543,-13.4581,-13.4536,-13.4536,-13.4483,-13.4504,-13.4494,-13.4391,-13.4357,-13.4252,-13.4295,-13.4486,-13.4178,-13.4174,-13.4231,-13.4628,-13.4703,-13.4739,-13.4408,-13.4412,-13.4416,-13.4631,0,-13.4422,-13.4429,-13.449,-13.4404,-13.4385,-13.443,-13.4285,-13.4285,-13.4185,-13.4095,-13.413,-13.4042,-13.3995,-13.4004,-13.3906,-13.4046,-13.3999,-13.3891,-13.3735,-13.3963,-13.4029,-13.4057,-13.3649,-13.3644,-13.3639,-13.3635,0,0,-13.4186,-13.4191,-13.4041,-13.4067,-13.404,-13.385,-13.3909,-13.3862,-13.377,-13.3756,-13.3671,-13.3638,-13.3569,-13.3624,-13.3684,-13.367,-13.3678,-13.3603,-13.3858,-13.3884,-13.3907,-13.3981,-13.4012,-13.3628,-13.3626,-13.3624,-13.3623,0,-13.4,-13.3935,-13.3994,-13.3938,-13.3847,-13.3748,-13.3764,-13.3639,-13.3583,-13.3617,-13.3455,-13.3459,-13.3438,-13.3382,-13.3351,-13.3597,-13.347,-13.3596,-13.3772,-13.3818,-13.385,-13.3877,-13.3957,-13.3989,-13.3612,-13.3613,-13.3613,0,-13.374,-13.3648,-13.3661,-13.3592,-13.353,-13.3538,-13.3342,-13.336,-13.3363,-13.3149,-13.3183,-13.3114,-13.3029,-13.3104,-13.3132,-13.3053,-13.3289,-13.3191,-13.3216,-13.3212,-13.3249,-13.3287,-13.3322,-13.2871,-13.2869,-13.2868,0,0,-13.3599,-13.3604,-13.3455,-13.354,-13.3513,-13.3364,-13.3354,-13.3248,-13.3175,-13.3147,-13.3051,-13.2986,-13.297,-13.2963,-13.2941,-13.3046,-13.3011,-13.3106,-13.3141,-13.317,-13.3182,-13.3228,-13.3266,-13.286,-13.286,-13.286,0,0,-13.3529,-13.3358,-13.3268,-13.3348,-13.3285,-13.3142,-13.3199,-13.3084,-13.3048,-13.3025,-13.2849,-13.2824,-13.2891,-13.2828,-13.2745,-13.2882,-13.2733,-13.275,-13.2918,-13.296,-13.2994,-13.3003,-13.2525,0,0,0,0,0,-13.3259,-13.3379,-13.3299,-13.329,-13.3199,-13.3188,-13.3175,-13.303,-13.2927,-13.2977,-13.2879,-13.2745,-13.2746,-13.2668,-13.2662,-13.2753,-13.2763,-13.278,-13.2796,-13.3036,-13.3082,-13.312,0,0,0,0,0,0,-13.3254,-13.3244,-13.3295,-13.316,-13.3138,-13.3182,-13.2975,-13.2938,-13.2918,-13.2892,-13.2769,-13.2742,-13.2618,-13.2661,-13.2658,-13.2747,-13.2526,-13.2769,-13.2784,-13.2797,-13.3052,-13.3089,-13.3121,0,0,0,0,0,-13.325,-13.3241,-13.3132,-13.3157,-13.3138,-13.2975,-13.2969,-13.2937,-13.2918,-13.2765,-13.2733,-13.2811,-13.2625,-13.2612,-13.2658,-13.2752,-13.2527,-13.2526,-13.2779,-13.279,-13.2801,-13.307,0,0,0,0,0,0,-13.3246,-13.3212,-13.3125,-13.3114,-13.3099,-13.297,-13.2944,-13.2936,-13.2789,-13.276,-13.2798,-13.2779,-13.2631,-13.262,-13.2612,-13.2762,-13.2528,-13.2527,-13.2527,-13.2788,-13.2797,-13.2805,0,0,0,0,0,0,-13.3215,-13.3204,-13.3119,-13.3053,-13.3033,-13.2966,-13.2943,-13.2961,-13.279,-13.2829,-13.2809,-13.2791,-13.2644,-13.2627,-13.2619,-13.2653,-13.2528,-13.2528,-13.2527,-13.2527,-13.2795,-13.2802,0,0,0,0,0,0,-13.3208,-13.3198,-13.3055,-13.304,-13.3022,-13.2885,-13.2978,-13.2893,-13.2735,-13.2839,-13.2716,-13.2708,-13.2655,-13.2644,-13.2625,-13.2664,-13.2656,-13.2528,-13.2528,-13.2528,-13.2527,0,0,0,0,0,0,0,-13.3202,-13.3303,-13.3192,-13.3029,-13.3013,-13.301,-13.3007,-13.3004,-13.2733,-13.2725,-13.2718,-13.2711,-13.2531,-13.2531,-13.253,-13.2673,0,0,-13.2528,-13.2528,0,0,0,0,0,0,0,0,-13.3303,-13.3303,-13.3191,-13.3189,-13.3187,-13.301,-13.3007,-13.3005,-13.2731,-13.2726,-13.272,-13.2714,-13.2531,-13.2531,-13.253,0,0,0,0,0,0,0,0,0,0,0,0,0,0,0,-13.3191,-13.3189,0,-13.301,-13.3007,-13.3005,-13.2731,-13.2726,-13.2721,-13.2716,-13.2531,-13.2531,-13.253,0,0,0,0,0,0,0,0,0,0,0,0,0,0,0,0,0,0,0,0,0,0,0,0,0,0,0,0,0,0,0,0,0,0,0,0,0,0,0,0,0,0,0,0,0,0,0,0,0,0,0,0,0,0,0,0,0,0,0,0,0,0,0,0,0,0,0,0,0]}],[{"header":{"parameterUnit":"kt","parameterCategory":2,"dx":1,"dy":1,"la1":30.253999710083008,"la2":30.299108505249023,"lo1":-89.0895004272461,"lo2":-89.04439544677734,"nx":28,"ny":28,"refTime":"2022-10-27T21:00:00:Z","depth":0,"parameterNumber":2,"parameterNumberName":"V-component_of_WINDS"},"data":[5.2853,5.313,5.3153,5.3477,5.3549,5.3773,5.3858,5.3969,5.406,5.4322,5.4474,5.4514,5.4606,5.4786,5.4947,5.4959,5.5029,5.5116,5.5117,5.4716,5.4662,5.461,5.4551,5.5129,5.513,5.5532,5.5536,5.5539,5.2567,5.2645,5.2822,5.3007,5.3157,5.3088,5.3225,5.3354,5.3552,5.3663,5.3813,5.4041,5.422,5.428,5.4453,5.4577,5.4552,5.4623,5.4617,5.4633,5.4204,5.4142,5.4642,5.4642,5.4642,5.4641,5.4641,5.4641,5.2054,5.2218,5.2343,5.2534,5.263,5.2751,5.2908,5.2958,5.3125,5.3313,5.3295,5.3515,5.3624,5.3835,5.3906,5.4074,5.3996,5.4077,5.4099,5.4122,5.4149,5.358,5.4102,5.41,5.4099,5.4098,5.4097,0,5.1686,5.1694,5.1862,5.2039,5.2177,5.2311,5.2436,5.2532,5.254,5.2675,5.2873,5.2987,5.321,5.3394,5.3554,5.361,5.3546,5.3536,5.3594,5.3614,5.3612,5.3624,5.2932,5.3522,5.3517,5.3513,5.3511,5.3509,5.1177,5.1362,5.1497,5.1613,5.1686,5.1869,5.1981,5.1974,5.2092,5.2239,5.2379,5.2561,5.2708,5.3011,5.3056,5.3219,5.3189,5.3415,5.3213,5.3224,5.3202,5.3195,5.3216,5.3457,5.3463,5.3469,5.3473,0,5.089,5.0918,5.1209,5.1321,5.1354,5.1546,5.1639,5.1796,5.1822,5.2041,5.2091,5.213,5.2318,5.2326,5.2537,5.2535,5.285,5.2812,5.2816,5.2811,5.302,5.3003,5.368,5.3771,5.3163,5.3169,5.3174,0,5.0469,5.0708,5.0738,5.0904,5.1171,5.1158,5.142,5.1468,5.1562,5.1735,5.1663,5.1825,5.1807,5.1969,5.1965,5.2221,5.2257,5.2273,5.2271,5.2285,5.2284,5.2347,5.2323,5.2247,5.2243,5.224,5.2238,0,5.0022,5.0313,5.0583,5.0654,5.0793,5.0918,5.098,5.1083,5.1189,5.1326,5.1396,5.1553,5.1641,5.1762,5.1758,5.1622,5.2068,5.1879,5.2084,5.2086,5.2187,5.2182,5.2775,5.2233,5.2232,5.2231,5.223,0,4.9686,4.9834,5.0218,5.0334,5.041,5.0583,5.0744,5.0894,5.1006,5.1017,5.1123,5.1076,5.1295,5.1109,5.1412,5.1237,5.1327,5.1359,5.1374,5.1399,5.1192,5.1535,5.2094,5.2156,5.1416,5.1409,5.1403,0,4.9172,4.9565,4.9558,4.992,5.0103,5.0017,5.0207,5.0309,5.034,5.0495,5.0524,5.0699,5.0561,5.0616,5.0764,5.0802,5.1028,5.077,5.0993,5.1002,5.0977,5.149,5.1576,5.197,5.1316,5.1325,5.1332,0,4.8776,4.8945,4.9009,4.9091,4.9225,4.9374,4.9591,4.9764,4.987,4.9985,5.017,5.0408,5.0317,5.0407,5.0382,5.0536,5.0874,5.0415,5.0417,5.0504,5.1269,5.1352,5.1418,5.0822,5.0833,5.0841,5.1263,0,4.8279,4.8475,4.8649,4.8824,4.894,4.9163,4.9176,4.9295,4.9264,4.9291,4.9555,4.9631,4.98,4.9871,4.9838,5.0187,5.013,5.0027,4.985,5.0183,5.0323,5.0379,4.9642,4.9637,4.9632,4.9629,0,0,4.7783,4.8064,4.8046,4.8259,4.8357,4.8262,4.85,4.858,4.8746,4.8814,4.8714,4.9065,4.913,4.9449,4.9553,4.9617,4.9682,4.9563,5.0023,5.0067,5.0107,5.0256,5.0315,4.9621,4.9619,4.9618,4.9616,0,4.7606,4.7684,4.792,4.8006,4.8132,4.8149,4.8206,4.831,4.8338,4.8594,4.8508,4.8664,4.8939,4.9025,4.9103,4.9524,4.9449,4.9572,4.9801,4.9978,5.0027,5.0071,5.0228,5.0284,4.9605,4.9606,4.9606,0,4.7224,4.7306,4.742,4.7635,4.7714,4.7899,4.7718,4.7918,4.8055,4.7931,4.8187,4.823,4.8339,4.8635,4.8767,4.868,4.9238,4.9058,4.9086,4.9102,4.9273,4.9333,4.9386,4.8686,4.8683,4.868,0,0,4.7069,4.7249,4.733,4.7597,4.7654,4.7681,4.7777,4.7757,4.7862,4.7903,4.7957,4.8058,4.8219,4.8324,4.8474,4.8796,4.8819,4.8945,4.8989,4.9024,4.9059,4.924,4.9299,4.8668,4.8668,4.8667,0,0,4.6993,4.71,4.7052,4.7363,4.747,4.7562,4.7724,4.7664,4.7801,4.7776,4.7743,4.7768,4.8043,4.8087,4.7926,4.8411,4.8234,4.8272,4.8374,4.8429,4.8471,4.8457,4.7747,0,0,0,0,0,4.6819,4.7088,4.7043,4.7097,4.7363,4.7588,4.7621,4.7605,4.7483,4.7612,4.7648,4.7558,4.7995,4.7851,4.7902,4.8083,4.8513,4.854,4.8566,4.8773,4.883,4.8878,0,0,0,0,0,0,4.684,4.6907,4.7035,4.714,4.72,4.7578,4.7369,4.7372,4.7469,4.7449,4.7555,4.7562,4.7547,4.7824,4.787,4.8042,4.7731,4.8524,4.8547,4.8568,4.8793,4.8839,4.888,0,0,0,0,0,4.6857,4.691,4.7342,4.7136,4.7188,4.723,4.7359,4.7359,4.7434,4.7488,4.7492,4.7413,4.7552,4.7589,4.7851,4.8022,4.7699,4.7716,4.8539,4.8557,4.8574,4.8816,0,0,0,0,0,0,4.6869,4.691,4.7352,4.7367,4.7034,4.7209,4.7236,4.7349,4.7465,4.7473,4.7343,4.7326,4.7559,4.7587,4.7616,4.8017,4.7673,4.7691,4.7701,4.8553,4.8567,4.858,0,0,0,0,0,0,4.6881,4.6924,4.7359,4.7231,4.7231,4.7189,4.7213,4.7429,4.7467,4.7312,4.7302,4.7334,4.7513,4.7587,4.7609,4.7947,4.7653,4.767,4.7681,4.7689,4.8565,4.8576,0,0,0,0,0,0,4.6899,4.6935,4.7227,4.7227,4.7227,4.7392,4.7378,4.765,4.7365,4.7309,4.7338,4.7326,4.7515,4.7537,4.7605,4.7933,4.7943,4.7653,4.7665,4.7673,4.7678,0,0,0,0,0,0,0,4.6913,4.6675,4.7264,4.7224,4.7223,4.7505,4.7509,4.7513,4.7362,4.7351,4.7341,4.7331,4.7556,4.7575,4.7594,4.7923,0,0,4.7652,4.766,0,0,0,0,0,0,0,0,4.6659,4.6671,4.7265,4.7268,4.7271,4.7505,4.7509,4.7512,4.736,4.7351,4.7343,4.7335,4.7561,4.7576,4.7592,0,0,0,0,0,0,0,0,0,0,0,0,0,0,0,4.7265,4.7268,0,4.7506,4.7508,4.7511,4.7359,4.7352,4.7345,4.7338,4.7566,4.7578,4.759,0,0,0,0,0,0,0,0,0,0,0,0,0,0,0,0,0,0,0,0,0,0,0,0,0,0,0,0,0,0,0,0,0,0,0,0,0,0,0,0,0,0,0,0,0,0,0,0,0,0,0,0,0,0,0,0,0,0,0,0,0,0,0,0,0,0,0,0,0]}]]]